Weather History for KCDD - October, 2012

Change the Weather History Date:

Wednesday, October 10, 2012

  Actual Average Record
Temperature  
Mean Temperature 34 °F -  
Max Temperature 42 °F 53 °F 80 °F (2003)
Min Temperature 26 °F 35 °F 21 °F (1996)
Degree Days  
Heating Degree Days 31    
Moisture  
Dew Point 32 °F    
Average Humidity 91    
Maximum Humidity 100    
Minimum Humidity 61    
Precipitation  
Precipitation 0.01 in - - ()
Sea Level Pressure  
Sea Level Pressure 29.92 in    
Wind  
Wind Speed 3 mph (WSW)    
Max Wind Speed 9 mph    
Max Gust Speed -    
Visibility 10 miles    
Events Rain    
Averages and records for this station are not official NWS values.
T = Trace of Precipitation, MM = Missing Value Source: NWS Daily Summary

Daily Weather History Graph

Daily Weather History Graph

Search for Another Location

Airport or City:

Trip Planner

Search our weather history database for the weather conditions in past years. The results will help you decide how hot, cold, wet, or windy it might be!

Date:

Astronomy

Oct. 10, 2012 Rise Set
Actual Time 7:22 AM CDT 6:29 PM CDT
Civil Twilight 6:51 AM CDT 7:00 PM CDT
Nautical Twilight 6:15 AM CDT 7:37 PM CDT
Astronomical Twilight 5:39 AM CDT 8:13 PM CDT
Moon 1:36 AM CDT (10/10) 3:52 PM CDT (10/10)
Length of Visible Light 12h 09m
Length of Day
11h 06m
Waning Crescent, 27% of the Moon is Illuminated
Oct 10
Waning Crescent
Oct 15
New
Oct 21
First Quarter
Oct 29
Full
Nov 6
Last Quarter

Hourly Weather History & Observations

Time (CDT) Temp. Windchill Dew Point Humidity Pressure Visibility Wind Dir Wind Speed Gust Speed Precip Events Conditions
12:09 AM 32.0 °F - 30.2 °F 93% 29.87 in 10.0 mi Calm Calm - N/A   Overcast
12:29 AM 32.0 °F - 30.2 °F 93% 29.87 in 10.0 mi Calm Calm - N/A   Overcast
12:49 AM 32.0 °F - 30.2 °F 93% 29.87 in 10.0 mi Calm Calm - N/A   Overcast
1:09 AM 30.2 °F - 30.2 °F 100% 29.87 in 10.0 mi Calm Calm - N/A   Overcast
1:29 AM 30.2 °F - 30.2 °F 100% 29.88 in 10.0 mi Calm Calm - N/A   Overcast
1:49 AM 30.2 °F 25.4 °F 30.2 °F 100% 29.88 in 10.0 mi WSW 4.6 mph - N/A   Overcast
2:09 AM 30.2 °F - 30.2 °F 100% 29.89 in 10.0 mi Calm Calm - N/A   Overcast
2:29 AM 30.2 °F - 30.2 °F 100% 29.89 in 10.0 mi Calm Calm - N/A   Overcast
2:49 AM 30.2 °F - 30.2 °F 100% 29.89 in 10.0 mi Calm Calm - N/A   Overcast
3:09 AM 30.2 °F - 30.2 °F 100% 29.89 in 10.0 mi Calm Calm - N/A   Overcast
3:29 AM 30.2 °F - 30.2 °F 100% 29.89 in 10.0 mi Calm Calm - N/A   Overcast
3:49 AM 30.2 °F 25.4 °F 30.2 °F 100% 29.89 in 10.0 mi West 4.6 mph - N/A   Overcast
4:09 AM 30.2 °F 24.3 °F 30.2 °F 100% 29.90 in 10.0 mi West 5.8 mph - N/A   Overcast
4:29 AM 30.2 °F 26.7 °F 28.4 °F 93% 29.90 in 10.0 mi West 3.5 mph - N/A   Overcast
4:49 AM 30.2 °F 25.4 °F 28.4 °F 93% 29.91 in 10.0 mi West 4.6 mph - N/A   Overcast
5:09 AM 30.2 °F 24.3 °F 28.4 °F 93% 29.91 in 10.0 mi West 5.8 mph - N/A   Overcast
5:29 AM 30.2 °F 24.3 °F 28.4 °F 93% 29.92 in 10.0 mi West 5.8 mph - N/A   Overcast
5:49 AM 30.2 °F 26.7 °F 28.4 °F 93% 29.92 in 10.0 mi West 3.5 mph - N/A   Overcast
6:09 AM 28.4 °F 24.6 °F 28.4 °F 100% 29.92 in 10.0 mi West 3.5 mph - N/A   Mostly Cloudy
6:29 AM 28.4 °F 24.6 °F 28.4 °F 100% 29.93 in 10.0 mi WSW 3.5 mph - N/A   Mostly Cloudy
6:49 AM 26.6 °F 22.6 °F 26.6 °F 100% 29.94 in 10.0 mi West 3.5 mph - N/A   Scattered Clouds
7:29 AM 26.6 °F - 26.6 °F 100% 29.94 in 10.0 mi Calm Calm - N/A   Scattered Clouds
7:49 AM 26.6 °F 22.6 °F 26.6 °F 100% 29.94 in 10.0 mi West 3.5 mph - N/A   Mostly Cloudy
8:09 AM 26.6 °F 22.6 °F 26.6 °F 100% 29.94 in 10.0 mi WSW 3.5 mph - N/A   Scattered Clouds
8:29 AM 28.4 °F 24.6 °F 26.6 °F 93% 29.95 in 10.0 mi West 3.5 mph - N/A   Scattered Clouds
8:49 AM 28.4 °F 23.3 °F 28.4 °F 100% 29.95 in 10.0 mi West 4.6 mph - N/A   Mostly Cloudy
9:09 AM 30.2 °F 25.4 °F 30.2 °F 100% 29.95 in 10.0 mi WSW 4.6 mph - N/A   Mostly Cloudy
9:29 AM 33.8 °F 30.8 °F 33.8 °F 100% 29.95 in 10.0 mi West 3.5 mph - N/A   Mostly Cloudy
9:49 AM 33.8 °F 29.6 °F 32.0 °F 93% 29.95 in 10.0 mi WSW 4.6 mph - N/A   Mostly Cloudy
10:09 AM 37.4 °F 32.8 °F 37.4 °F 100% 29.95 in 10.0 mi WSW 5.8 mph - N/A   Scattered Clouds
10:29 AM 39.2 °F 35.9 °F 37.4 °F 93% 29.95 in 10.0 mi West 4.6 mph - N/A   Mostly Cloudy
10:49 AM 39.2 °F 33.6 °F 37.4 °F 93% 29.95 in 10.0 mi West 8.1 mph - N/A   Scattered Clouds
11:09 AM 39.2 °F 35.0 °F 37.4 °F 93% 29.96 in 10.0 mi WSW 5.8 mph - N/A   Scattered Clouds
11:29 AM 39.2 °F 35.0 °F 37.4 °F 93% 29.96 in 10.0 mi West 5.8 mph - N/A   Overcast
11:49 AM 39.2 °F 35.0 °F 37.4 °F 93% 29.96 in 10.0 mi West 5.8 mph - N/A   Overcast
12:09 PM 39.2 °F 35.0 °F 39.2 °F 100% 29.95 in 10.0 mi West 5.8 mph - N/A   Overcast
12:29 PM 39.2 °F 35.0 °F 37.4 °F 93% 29.95 in 10.0 mi WSW 5.8 mph - N/A   Mostly Cloudy
12:49 PM 39.2 °F 34.2 °F 37.4 °F 93% 29.95 in 10.0 mi WSW 6.9 mph - N/A   Mostly Cloudy
1:09 PM 39.2 °F 33.6 °F 37.4 °F 93% 29.95 in 10.0 mi SW 8.1 mph - N/A   Overcast
1:29 PM 37.4 °F 32.8 °F 35.6 °F 93% 29.95 in 10.0 mi SW 5.8 mph - N/A   Overcast
1:49 PM 39.2 °F 35.9 °F 37.4 °F 93% 29.94 in 10.0 mi West 4.6 mph - N/A   Overcast
2:09 PM 41.0 °F 37.1 °F 39.2 °F 93% 29.93 in 10.0 mi West 5.8 mph - N/A   Overcast
2:29 PM 42.8 °F 38.0 °F 37.4 °F 81% 29.93 in 10.0 mi West 8.1 mph - N/A   Overcast
2:49 PM 42.8 °F 40.1 °F 39.2 °F 87% 29.93 in 10.0 mi WSW 4.6 mph - N/A   Scattered Clouds
3:09 PM 42.8 °F 37.5 °F 39.2 °F 87% 29.93 in 10.0 mi WSW 9.2 mph - N/A   Scattered Clouds
3:29 PM 41.0 °F 39.0 °F 37.4 °F 87% 29.93 in 10.0 mi WNW 3.5 mph - N/A   Mostly Cloudy
3:49 PM 41.0 °F 36.4 °F 33.8 °F 76% 29.93 in 10.0 mi WSW 6.9 mph - N/A   Overcast
4:09 PM 39.2 °F 34.2 °F 35.6 °F 87% 29.92 in 10.0 mi WSW 6.9 mph - N/A   Overcast
4:29 PM 39.2 °F 37.0 °F 30.2 °F 70% 29.92 in 10.0 mi SW 3.5 mph - N/A   Overcast
4:49 PM 39.2 °F 35.9 °F 33.8 °F 81% 29.91 in 10.0 mi WSW 4.6 mph - N/A   Overcast
5:09 PM 39.2 °F - 30.2 °F 70% 29.91 in 10.0 mi Calm Calm - N/A   Overcast
5:29 PM 39.2 °F - 26.6 °F 61% 29.91 in 10.0 mi Calm Calm - N/A   Mostly Cloudy
5:49 PM 39.2 °F - 26.6 °F 61% 29.90 in 10.0 mi Calm Calm - N/A   Overcast
6:09 PM 37.4 °F 31.4 °F 33.8 °F 87% 29.91 in 10.0 mi WSW 8.1 mph - N/A   Overcast
6:49 PM 37.4 °F 32.8 °F 30.2 °F 75% 29.91 in 10.0 mi WSW 5.8 mph - N/A   Drizzle
7:09 PM 35.6 °F 32.8 °F 30.2 °F 81% 29.91 in 10.0 mi SSW 3.5 mph - N/A   Overcast
7:29 PM 35.6 °F 32.8 °F 30.2 °F 81% 29.91 in 10.0 mi South 3.5 mph - N/A   Overcast
7:49 PM 35.6 °F - 30.2 °F 81% 29.91 in 10.0 mi Calm Calm - N/A   Overcast
8:09 PM 35.6 °F 32.8 °F 32.0 °F 87% 29.92 in 10.0 mi SW 3.5 mph - N/A   Drizzle
8:29 PM 35.6 °F - 32.0 °F 87% 29.92 in 5.0 mi Calm Calm - N/A Rain Rain
8:49 PM 35.6 °F 32.8 °F 32.0 °F 87% 29.92 in 7.0 mi SW 3.5 mph - N/A   Drizzle
9:09 PM 35.6 °F 32.8 °F 32.0 °F 87% 29.92 in 7.0 mi SW 3.5 mph - N/A   Drizzle
9:29 PM 33.8 °F 29.6 °F 32.0 °F 93% 29.92 in 5.0 mi WSW 4.6 mph - N/A   Drizzle
9:49 PM 33.8 °F 30.8 °F 32.0 °F 93% 29.92 in 5.0 mi SW 3.5 mph - N/A   Drizzle
10:09 PM 33.8 °F 30.8 °F 32.0 °F 93% 29.92 in 5.0 mi SW 3.5 mph - 0.01 in   Drizzle
10:29 PM 33.8 °F 30.8 °F 30.2 °F 87% 29.92 in 10.0 mi South 3.5 mph - 0.01 in   Overcast
10:49 PM 33.8 °F 30.8 °F 30.2 °F 87% 29.92 in 7.0 mi SSW 3.5 mph - 0.01 in   Light Drizzle
11:09 PM 33.8 °F - 30.2 °F 87% 29.92 in 10.0 mi Calm Calm - N/A Rain Light Rain
11:29 PM 33.8 °F - 30.2 °F 87% 29.91 in 10.0 mi Calm Calm - N/A Rain Light Rain
11:49 PM 33.8 °F 30.8 °F 30.2 °F 87% 29.91 in 10.0 mi South 3.5 mph - N/A   Light Drizzle